Torna al catalogo

STARLINK-11118

AttivoComunicazioniVLEO
NORAD 59754·PAYLOAD·🇺🇸 United States

Lanciato May 14, 2024 da Vandenberg Space Force Base

Loading…

Prossimi Passaggi (prossime 24 ore)

TLE

AggiornatoSource: CelesTrak SupGP

Epoca: Sep 15, 2026, 03:12 UTC

1 59754C 24091B   26258.13381944  .00005962  00000+0  49124-4 0  2585
2 59754  53.1570 352.7012 0001033  87.7597 256.8972 15.69699164    19

Traccia STARLINK-11118 in tempo reale con AllMySat

Download on the App Store